This is the latest recevied weather packets stored in our database for station/object K3CHZ. If no packets are shown the sender has not sent any weather packets the latest 10 day(s).
| Time | Temp. | Humidity | Pressure | Rain* | Wind** | Luminosity | Snow |
|---|---|---|---|---|---|---|---|
| 1777829243 | 13.89° C | 41% | 1015.9 hPa | 0 mm | - | - | - |
| 1777828940 | 13.89° C | 40% | 1016 hPa | 0 mm | - | - | - |
| 1777828640 | 13.33° C | 42% | 1016.1 hPa | 0 mm | - | - | - |
| 1777828339 | 12.78° C | 51% | 1016.4 hPa | 0 mm | - | - | - |
| 1777828040 | 12.78° C | 42% | 1016.4 hPa | 0 mm | - | - | - |
| 1777827740 | 12.78° C | 41% | 1016.4 hPa | 0 mm | - | - | - |
| 1777827439 | 13.33° C | 44% | 1016.3 hPa | 0 mm | - | - | - |
| 1777827140 | 13.33° C | 42% | 1016.4 hPa | 0 mm | - | - | - |
| 1777826841 | 13.33° C | 40% | 1016.5 hPa | 0 mm | - | - | - |
| 1777826540 | 13.89° C | 42% | 1016.5 hPa | 0 mm | - | - | - |
| 1777826242 | 13.89° C | 44% | 1016.6 hPa | 0 mm | - | - | - |
| 1777825940 | 13.33° C | 46% | 1016.7 hPa | 0 mm | - | - | - |
| 1777825640 | 12.78° C | 43% | 1016.5 hPa | 0 mm | - | - | - |
| 1777825341 | 12.78° C | 40% | 1016.7 hPa | 0 mm | - | - | - |
| 1777825040 | 12.78° C | 42% | 1016.7 hPa | 0 mm | - | - | - |
| 1777824740 | 12.22° C | 44% | 1016.7 hPa | 0 mm | - | - | - |
| 1777824440 | 12.22° C | 44% | 1016.7 hPa | 0 mm | - | - | - |
| 1777824140 | 12.22° C | 43% | 1016.7 hPa | 0 mm | - | - | - |
| 1777823840 | 12.22° C | 42% | 1016.9 hPa | 0 mm | - | - | - |
| 1777823541 | 12.22° C | 43% | 1016.6 hPa | 0 mm | - | - | - |
| 1777823240 | 12.22° C | 41% | 1016.8 hPa | 0 mm | - | - | - |
| 1777822940 | 12.78° C | 41% | 1016.8 hPa | 0 mm | - | - | - |
| 1777822640 | 12.78° C | 42% | 1016.7 hPa | 0 mm | - | - | - |
| 1777822340 | 12.22° C | 41% | 1016.9 hPa | 0 mm | - | - | - |
| 1777822037 | 12.22° C | 43% | 1016.9 hPa | 0 mm | - | - | - |
* Rain latest hour (hover to see other rain measurements)
** Current wind speed in m/s (hover to see current wind gust speed)